DW6743 Weather Reports


Display with metric or nautical units.
time (UTC)temp
F
wind
direction
speed
MPH
gust
MPH
rain 1hr
in
rain 24hr
in
rain mn
in
humidity
%
barometer
mb
20260831081804 64 257 10.0 12.0 0.00 0.69 0.00 81 1006.0
20260831081608 63 249 10.0 13.0 0.00 0.16 0.00 81 1006.0
20260831080804 64 260 10.0 13.0 0.00 0.69 0.00 81 1006.1
20260831080304 63 270 10.0 14.0 0.00 0.69 0.00 81 1006.1
20260831080109 63 269 11.0 14.0 0.00 0.16 0.00 81 1006.0
20260831074804 63 267 10.0 15.0 0.00 0.69 0.00 81 1006.1
20260831074608 63 249 11.0 14.0 0.00 0.16 0.00 81 1005.9
20260831074304 63 261 13.0 14.0 0.00 0.69 0.00 81 1006.1
20260831073804 63 263 10.0 13.0 0.00 0.69 0.00 81 1006.1
20260831073304 63 265 11.0 16.0 0.00 0.69 0.00 82 1006.1
20260831073112 62 270 11.0 16.0 0.00 0.16 0.00 81 1006.1
20260831071604 62 268 11.0 13.0 0.00 0.16 0.00 82 1006.0
20260831070804 62 262 10.0 13.0 0.00 0.69 0.00 82 1006.1
20260831070304 62 265 12.0 15.0 0.00 0.69 0.00 82 1006.1
20260831070115 62 278 11.0 14.0 0.00 0.16 0.00 82 1006.1
20260831064803 62 265 10.0 13.0 0.00 0.69 0.00 83 1006.0
20260831064604 62 262 10.0 13.0 0.00 0.16 0.00 82 1006.0
20260831064304 62 261 9.0 13.0 0.00 0.69 0.00 83 1006.1
20260831063803 62 259 10.0 13.0 0.00 0.69 0.00 83 1006.1
20260831063304 62 270 10.0 15.0 0.00 0.69 0.00 83 1006.1
20260831063102 62 274 10.0 15.0 0.00 0.16 0.00 82 1006.1
20260831061605 61 268 11.0 17.0 0.00 0.16 0.00 82 1006.1
20260831061304 62 268 13.0 16.0 0.00 0.69 0.00 82 1006.3
20260831060804 62 261 13.0 17.0 0.00 0.69 0.00 82 1006.3
20260831060304 62 270 14.0 17.0 0.00 0.69 0.00 82 1006.1
20260831060110 61 259 14.0 17.0 0.00 0.16 0.00 81 1006.0
20260831054605 61 260 14.0 18.0 0.00 0.16 0.00 81 1006.1
20260831054303 61 271 14.0 18.0 0.00 0.69 0.00 82 1006.1
20260831053803 61 270 13.0 20.0 0.00 0.69 0.00 82 1006.1
20260831053304 61 264 14.0 20.0 0.00 0.69 0.00 82 1006.2
20260831053104 61 259 15.0 18.0 0.00 0.16 0.00 81 1006.1
20260831051605 61 254 16.0 18.0 0.00 0.16 0.00 82 1006.2
20260831050804 61 266 14.0 18.0 0.00 0.69 0.00 82 1006.1
20260831050110 61 261 14.0 19.0 0.00 0.16 0.00 82 1006.1
20260831044804 61 267 13.0 18.0 0.00 0.69 0.00 82 1006.0
20260831044612 60 265 14.0 19.0 0.00 0.16 0.00 81 1006.0
20260831043803 61 267 16.0 20.0 0.00 0.69 0.00 82 1006.1
20260831043304 61 270 17.0 21.0 0.00 0.69 0.00 82 1005.9
20260831043109 61 266 13.0 19.0 0.00 0.16 0.00 81 1005.8
20260831041605 60 281 16.0 21.0 0.00 0.16 0.00 81 1006.0
20260831041304 61 269 16.0 21.0 0.00 0.69 0.00 82 1006.0
20260831040804 61 264 17.0 20.0 0.00 0.69 0.00 82 1006.0
20260831040106 60 262 15.0 22.0 0.00 0.16 0.00 81 1005.9
20260831034804 61 269 18.0 20.0 0.00 0.69 0.00 81 1006.0
20260831034608 61 266 15.0 20.0 0.00 0.16 0.00 81 1005.9
20260831034304 61 267 17.0 20.0 0.00 0.69 0.00 81 1005.9
20260831033804 61 260 16.0 20.0 0.00 0.69 0.00 81 1005.9
20260831033305 61 264 17.0 21.0 0.00 0.69 0.00 81 1005.9
20260831033104 60 262 16.0 21.0 0.00 0.16 0.00 81 1005.9
20260831031804 61 262 17.0 20.0 0.00 0.69 0.00 82 1006.0
20260831031606 60 260 14.0 20.0 0.00 0.16 0.00 81 1005.9
20260831031304 61 261 16.0 20.0 0.00 0.69 0.00 82 1006.0
20260831030804 61 266 15.0 20.0 0.00 0.69 0.00 82 1005.9
20260831030304 61 264 16.0 20.0 0.00 0.69 0.00 82 1006.0
20260831030110 61 266 16.0 20.0 0.00 0.16 0.00 81 1006.0
20260831024804 61 263 18.0 22.0 0.00 0.69 0.00 81 1006.0
20260831024618 61 266 19.0 23.0 0.00 0.16 0.00 81 1005.9
20260831024304 61 260 19.0 23.0 0.00 0.69 0.00 81 1006.0
20260831023105 61 265 16.0 22.0 0.00 0.16 0.00 80 1006.0
20260831021804 61 269 16.0 20.0 0.00 0.69 0.00 79 1005.9
20260831021605 61 286 14.0 18.0 0.00 0.16 0.00 79 1005.9
20260831021304 61 286 16.0 18.0 0.00 0.69 0.00 79 1005.9
20260831020803 61 282 13.0 17.0 0.00 0.69 0.00 79 1006.0
20260831020304 61 275 14.0 23.0 0.00 0.69 0.00 79 1006.1
20260831020111 61 290 16.0 23.0 0.00 0.16 0.00 78 1005.9
20260831014626 61 310 16.0 22.0 0.00 0.16 0.00 79 1005.9
20260831014303 61 292 17.0 20.0 0.00 0.69 0.00 80 1006.0
20260831013803 61 287 14.0 20.0 0.00 0.69 0.00 80 1005.9
20260831013304 61 297 17.0 24.0 0.00 0.69 0.00 80 1005.9
20260831013106 60 293 18.0 24.0 0.00 0.16 0.00 79 1005.9
20260831011804 61 275 16.0 20.0 0.00 0.69 0.00 81 1006.0
20260831011616 60 291 14.0 22.0 0.00 0.16 0.00 80 1005.9
20260831011304 61 287 16.0 20.0 0.00 0.69 0.00 81 1006.0
20260831010804 61 293 18.0 21.0 0.00 0.69 0.00 81 1006.0
20260831010304 61 287 18.0 23.0 0.00 0.69 0.00 81 1006.0
20260831010108 61 314 14.0 22.0 0.00 0.16 0.00 80 1006.0
20260831004805 61 269 16.0 22.0 0.00 0.69 0.00 82 1006.0
20260831004609 61 268 16.0 22.0 0.00 0.16 0.00 81 1006.0
20260831004304 61 270 13.0 17.0 0.00 0.69 0.00 82 1006.2
20260831003804 61 282 14.0 18.0 0.00 0.69 0.00 82 1006.1
20260831003304 61 276 13.0 20.0 0.00 0.69 0.00 82 1006.2
20260831003106 61 261 13.0 19.0 0.00 0.16 0.00 81 1006.0
20260831001804 62 283 13.0 18.0 0.00 0.69 0.00 82 1006.1
20260831001607 61 295 15.0 19.0 0.00 0.16 0.00 81 1006.1
20260831001304 61 289 14.0 20.0 0.00 0.69 0.00 81 1006.1
20260831000804 61 293 13.0 20.0 0.00 0.69 0.00 82 1006.2
20260831000304 61 295 13.0 20.0 0.00 0.69 0.00 82 1006.1
20260831000108 61 314 12.0 20.0 0.00 0.16 0.00 81 1006.0
20260830234803 61 298 13.0 20.0 0.00 0.69 0.00 81 1006.1
20260830234606 61 331 14.0 22.0 0.00 0.16 0.00 81 1005.9
20260830234304 61 295 13.0 21.0 0.00 0.69 0.00 81 1006.1
20260830233804 61 289 17.0 22.0 0.00 0.69 0.00 81 1006.1
20260830233305 61 293 18.0 22.0 0.00 0.69 0.00 81 1006.0
20260830233108 61 295 17.0 22.0 0.00 0.16 0.00 81 1006.0
20260830231803 61 293 18.0 24.0 0.00 0.69 0.00 81 1006.1
20260830231610 61 305 18.0 26.0 0.00 0.16 0.00 81 1006.0
20260830230804 61 280 16.0 24.0 0.00 0.69 0.00 81 1006.0
20260830230116 61 270 14.0 19.0 0.00 0.16 0.00 81 1005.9
20260830224804 62 276 14.0 20.0 0.00 0.69 0.00 82 1005.9
20260830224636 61 275 15.0 21.0 0.00 0.16 0.00 81 1005.8
20260830224304 62 281 16.0 21.0 0.00 0.69 0.00 82 1005.9
20260830223803 62 280 14.0 21.0 0.00 0.69 0.00 82 1005.9
20260830223304 62 281 14.0 22.0 0.00 0.69 0.00 82 1006.0
20260830223106 61 295 17.0 21.0 0.00 0.16 0.00 81 1005.9
20260830221804 62 289 16.0 22.0 0.00 0.69 0.00 82 1006.0
20260830221618 62 279 16.0 24.0 0.00 0.16 0.00 81 1005.9
20260830221303 62 279 17.0 24.0 0.00 0.69 0.00 82 1006.0
20260830220839 62 287 20.0 24.0 0.00 0.69 0.00 81 1005.9
20260830220109 61 279 19.0 24.0 0.00 0.16 0.00 81 1005.9
20260830214804 62 286 16.0 23.0 0.00 0.69 0.17 82 1005.9
20260830214607 62 284 17.0 24.0 0.00 0.16 0.16 82 1005.8
20260830214304 62 288 18.0 22.0 0.00 0.69 0.17 82 1005.9
20260830213804 62 285 20.0 23.0 0.00 0.69 0.17 82 1005.9
20260830213304 62 281 17.0 23.0 0.00 0.69 0.17 82 1005.9
20260830213104 62 280 17.0 23.0 0.00 0.16 0.16 81 1005.8
20260830211605 62 284 15.0 23.0 0.00 0.16 0.16 81 1005.8
20260830211304 62 289 18.0 23.0 0.00 0.69 0.17 82 1005.7
20260830210804 62 287 16.0 21.0 0.00 0.69 0.17 82 1005.7
20260830210108 61 295 16.0 24.0 0.00 0.16 0.16 81 1005.5
20260830204606 61 288 17.0 23.0 0.00 0.16 0.16 82 1005.5
20260830204304 62 283 18.0 23.0 0.00 0.69 0.17 82 1005.5
20260830203804 62 287 15.0 22.0 0.00 0.69 0.17 83 1005.4
20260830203306 62 302 16.0 22.0 0.00 0.69 0.17 83 1005.4
20260830203107 62 295 14.0 22.0 0.00 0.16 0.16 82 1005.3
20260830201803 62 301 14.0 23.0 0.00 0.69 0.17 83 1005.3
20260830201606 61 288 19.0 26.0 0.00 0.16 0.16 82 1005.3
20260830201304 62 287 21.0 26.0 0.00 0.69 0.17 83 1005.4
20260830200804 62 289 18.0 23.0 0.00 0.69 0.17 83 1005.2
20260830200106 62 300 17.0 24.0 0.00 0.16 0.16 83 1005.2
20260830194804 62 298 18.0 25.0 0.00 0.69 0.17 83 1005.1
20260830194610 62 291 18.0 26.0 0.00 0.16 0.16 83 1005.1
20260830194304 63 296 18.0 26.0 0.00 0.69 0.17 83 1005.0
20260830193804 63 294 14.0 20.0 0.00 0.69 0.17 83 1005.0
20260830193304 63 309 15.0 28.0 0.00 0.69 0.17 83 1004.9
20260830193108 62 327 16.0 28.0 0.00 0.16 0.16 83 1004.8
20260830191803 63 291 20.0 26.0 0.00 0.77 0.17 84 1004.7
20260830191608 62 293 21.0 27.0 0.00 0.16 0.16 84 1004.7
20260830191305 63 286 21.0 26.0 0.00 0.77 0.17 84 1004.6
20260830190804 63 288 23.0 26.0 0.00 0.77 0.17 84 1004.5
20260830190304 63 292 18.0 28.0 0.00 0.77 0.17 85 1004.4
20260830190105 62 291 23.0 28.0 0.00 0.16 0.16 84 1004.3
20260830184804 63 289 21.0 26.0 0.00 0.77 0.17 86 1004.3
20260830184612 63 287 17.0 23.0 0.00 0.16 0.16 85 1004.3
20260830184304 63 300 17.0 23.0 0.00 0.77 0.17 86 1004.2
20260830183304 63 307 16.0 21.0 0.00 0.77 0.17 86 1004.1
20260830183111 63 291 13.0 21.0 0.00 0.16 0.16 86 1004.0
20260830181607 63 310 11.0 16.0 0.00 0.16 0.16 86 1004.0
20260830181304 63 314 12.0 15.0 0.00 0.77 0.17 86 1003.9
20260830180112 62 315 9.0 17.0 0.00 0.16 0.16 86 1003.6
20260830174804 62 320 11.0 17.0 0.00 0.85 0.17 87 1003.6
20260830174608 62 317 11.0 18.0 0.00 0.16 0.16 86 1003.6
20260830174304 62 323 12.0 17.0 0.00 0.85 0.17 87 1003.6
20260830173803 62 320 13.0 18.0 0.00 0.85 0.17 87 1003.5
20260830173118 61 331 13.0 20.0 0.00 0.16 0.16 87 1003.3
20260830171804 62 321 9.0 15.0 0.00 0.85 0.17 87 1003.2
20260830171612 61 347 8.0 14.0 0.00 0.16 0.16 87 1003.1
20260830170804 62 330 10.0 14.0 0.00 0.85 0.17 87 1003.0
20260830170304 62 336 12.0 18.0 0.00 0.85 0.17 88 1003.0
20260830170106 61 345 9.0 18.0 0.00 0.16 0.16 87 1003.0
20260830164804 61 339 13.0 16.0 0.00 0.76 0.17 88 1002.8
20260830164612 61 345 12.0 19.0 0.00 0.16 0.16 87 1002.8
20260830164304 62 341 14.0 20.0 0.00 0.76 0.17 88 1002.7
20260830163304 62 351 12.0 16.0 0.19 0.60 0.00 88 1002.5
20260830163102 61 345 11.0 16.0 0.02 0.16 0.16 87 1002.5
20260830161804 61 352 12.0 16.0 0.07 0.60 0.17 88 1002.3
20260830161614 61 353 12.0 21.0 0.07 0.16 0.16 87 1002.3
20260830160803 62 349 16.0 21.0 0.07 0.43 0.17 88 1002.2
20260830160107 61 360 11.0 24.0 0.07 0.16 0.16 87 1002.0
20260830154804 62 345 17.0 24.0 0.07 0.43 0.17 87 1001.9
20260830154608 62 351 17.0 26.0 0.07 0.16 0.16 87 1001.8
20260830154304 62 345 17.0 26.0 0.08 0.43 0.17 88 1001.8
20260830153804 62 346 20.0 25.0 0.08 0.43 0.17 87 1001.8
20260830153304 63 342 17.0 21.0 0.07 0.43 0.16 87 1001.8
20260830153107 63 344 15.0 21.0 0.04 0.13 0.13 87 1001.6
20260830151804 65 327 5.0 8.0 0.01 0.36 0.09 88 1001.4
20260830151608 65 325 6.0 9.0 0.00 0.09 0.09 87 1001.3
20260830151304 65 312 4.0 8.0 0.01 0.36 0.09 88 1001.4
20260830150804 65 332 5.0 9.0 0.01 0.36 0.09 88 1001.3
20260830150107 65 327 4.0 9.0 0.01 0.09 0.09 87 1001.3
20260830144606 64 210 3.0 4.0 0.01 0.08 0.08 87 1001.3
20260830144303 65 210 3.0 3.0 0.02 0.35 0.09 87 1001.3
20260830143804 65 210 2.0 3.0 0.03 0.35 0.09 87 1001.3
20260830143304 65 210 2.0 6.0 0.05 0.43 0.09 87 1001.2
20260830143115 65 210 1.0 6.0 0.04 0.08 0.08 87 1001.2
20260830141605 65 210 3.0 7.0 0.05 0.08 0.08 87 1001.1
20260830141304 65 210 3.0 6.0 0.06 0.43 0.09 87 1001.2
20260830140804 65 210 2.0 6.0 0.06 0.43 0.09 87 1001.1
20260830140108 65 210 4.0 9.0 0.04 0.07 0.07 87 1001.1
20260830134804 65 231 3.0 7.0 0.04 0.50 0.07 87 1001.2
20260830134605 64 147 1.0 4.0 0.03 0.07 0.07 87 1001.0
20260830134304 64 147 1.0 2.0 0.03 0.49 0.06 87 1001.2
20260830133804 64 147 0.0 2.0 0.02 0.48 0.06 87 1001.2
20260830133106 64 0 1.0 3.0 0.00 0.03 0.03 87 1001.1
20260830131803 64 147 2.0 5.0 0.02 0.43 0.00 87 1001.1
20260830131607 64 147 2.0 7.0 0.02 0.03 0.03 87 1001.1
20260830131304 64 147 3.0 5.0 0.02 0.43 0.03 87 1001.1
20260830130804 64 147 5.0 7.0 0.02 0.43 0.03 87 1001.1
20260830130304 64 143 3.0 7.0 0.02 0.43 0.03 87 1001.1
20260830130110 64 146 4.0 7.0 0.02 0.03 0.03 87 1001.0
20260830124804 64 147 3.0 8.0 0.03 0.43 0.03 87 1001.1
20260830124605 64 154 4.0 8.0 0.03 0.03 0.03 87 1001.0
20260830124304 64 154 4.0 7.0 0.03 0.43 0.03 87 1001.1
20260830123803 64 134 4.0 7.0 0.03 0.43 0.03 87 1001.0
20260830123305 64 132 5.0 12.0 0.03 0.43 0.03 87 1001.1
20260830123127 64 135 7.0 11.0 0.03 0.03 0.03 86 1001.1
20260830121804 64 133 9.0 12.0 0.02 0.49 0.02 87 1001.2
20260830121609 64 135 8.0 11.0 0.00 0.00 0.00 86 1001.2
20260830121304 64 119 8.0 12.0 0.01 0.48 0.01 87 1001.2
20260830120804 64 116 6.0 14.0 0.01 0.48 0.01 87 1001.2
20260830120303 64 126 7.0 13.0 0.01 0.48 0.01 87 1001.2
20260830120106 64 139 7.0 12.0 0.00 0.00 0.00 86 1001.2
20260830114804 64 119 5.0 12.0 0.00 0.55 0.00 86 1001.3
20260830114610 64 116 7.0 13.0 0.00 0.00 0.00 86 1001.2
20260830114304 64 131 9.0 13.0 0.00 0.55 0.00 86 1001.3
20260830113804 64 136 8.0 13.0 0.00 0.55 0.00 86 1001.4
20260830113304 64 126 6.0 14.0 0.00 0.55 0.00 86 1001.3
20260830113103 63 120 6.0 14.0 0.00 0.00 0.00 86 1001.4
20260830111804 64 134 6.0 12.0 0.00 0.55 0.00 86 1001.5
20260830111605 63 128 5.0 12.0 0.00 0.00 0.00 86 1001.5
20260830111304 64 153 6.0 10.0 0.00 0.55 0.00 86 1001.5
20260830110804 64 153 8.0 10.0 0.00 0.55 0.00 86 1001.6
20260830110108 63 160 5.0 12.0 0.00 0.00 0.00 86 1001.5
20260830104604 63 144 6.0 11.0 0.00 0.05 0.00 86 1001.7
20260830104304 63 121 7.0 12.0 0.00 0.55 0.00 86 1001.7
20260830103804 63 128 5.0 12.0 0.00 0.55 0.00 86 1001.7
20260830103304 63 140 9.0 16.0 0.00 0.55 0.00 86 1001.8
20260830103107 63 137 7.0 15.0 0.00 0.05 0.00 86 1001.7
20260830101804 63 136 11.0 16.0 0.00 0.56 0.00 86 1002.0
20260830101608 63 156 9.0 17.0 0.00 0.05 0.00 85 1002.0
20260830101304 63 144 11.0 16.0 0.00 0.58 0.00 86 1002.0
20260830100304 63 127 8.0 15.0 0.00 0.61 0.00 86 1002.1
20260830100106 63 106 10.0 15.0 0.00 0.05 0.00 86 1002.0
20260830094804 63 124 8.0 13.0 0.00 0.61 0.00 86 1002.1
20260830094607 62 139 6.0 11.0 0.00 0.06 0.00 86 1002.1
20260830093804 62 132 5.0 12.0 0.00 0.63 0.00 86 1002.2
20260830093304 62 134 5.0 12.0 0.00 0.63 0.00 86 1002.2
20260830093114 62 137 5.0 12.0 0.00 0.06 0.00 86 1002.3
20260830091804 62 141 7.0 12.0 0.00 0.63 0.00 86 1002.3
20260830091606 61 143 8.0 12.0 0.00 0.06 0.00 85 1002.3
20260830091304 62 134 9.0 12.0 0.00 0.63 0.00 86 1002.3
20260830090804 62 139 6.0 12.0 0.00 0.63 0.00 86 1002.3
20260830090304 62 140 6.0 12.0 0.00 0.63 0.00 85 1002.4
20260830090107 61 143 6.0 11.0 0.00 0.06 0.00 85 1002.4
20260830084804 62 169 6.0 10.0 0.00 0.65 0.00 85 1002.5
20260830084616 62 158 7.0 13.0 0.00 0.06 0.00 85 1002.6
20260830084304 62 157 6.0 13.0 0.00 0.65 0.00 85 1002.6
20260830083804 62 158 6.0 14.0 0.00 0.66 0.00 86 1002.5
20260830083108 62 168 8.0 17.0 0.00 0.06 0.00 85 1002.6